Location: Battery Park City
(40.7115°N, 74.0163°W)
Time: 05:24:43
(UTC+00:00)

PSLV R/B - Pass Details

Date: 08 December 2019
Orbit: 567 x 600 km, 98.1° (Epoch: 24 January)

Event Time Altitude Azimuth Distance (km) Brightness Sun altitude
Rises 21:55:49 0° 14° (NNE) 2,834 7.1 -5.4°
Reaches altitude 10° 21:58:00 10° 15° (NNE) 1,923 6.2 -5.8°
Maximum altitude 22:02:10 79° 103° (ESE) 600 3.9 -6.5°
Drops below altitude 10° 22:06:16 10° 190° (S) 1,888 7.0 -7.2°
Sets 22:08:23 0° 192° (SSW) 2,776 7.9 -7.6°
